weather.gov     
National Weather Service

Terminal Aerodrome Forecast
NWS Homepage
This page is being discontinued on March 12, 2014.
The same data is available at this site. Please update your bookmarks.
Thank you, and we apologize for the inconvenience.
Please send an email to SR-SRH.Webmaster@noaa.gov with any concerns.


Current Version
Previous Version:    01  02  03  04  05  06  07  08  09  10  11  12  13  14  15  16  17  18  19  20  21  22  23  24  25  26  27  28  29  30  
   31  32  33  34  35  36  37  38  39  
[Printable]
452
FTUS43 KDTX 250233 AAB
TAFYIP
TAF AMD
KYIP 250233Z 2503/2524 22005KT P6SM BKN200
     FM250600 21004KT 4SM BR SCT070 BKN150
      TEMPO 2510/2512 2SM BR SCT150
     FM251300 24012KT P6SM OVC016
     FM251600 27014G22KT P6SM BKN022
     FM252000 27015G24KT P6SM SKC=


452
FTUS43 KDTX 250233 AAB
TAFYIP
TAF AMD
KYIP 250233Z 2503/2524 22005KT P6SM BKN200
     FM250600 21004KT 4SM BR SCT070 BKN150
      TEMPO 2510/2512 2SM BR SCT150
     FM251300 24012KT P6SM OVC016
     FM251600 27014G22KT P6SM BKN022
     FM252000 27015G24KT P6SM SKC=




U.S. Dept. of Commerce
NOAA National Weather Service
1325 East West Highway
Silver Spring, MD 20910
E-mail: w-nws.webmaster@noaa.gov
Page last modified: May 16, 2007
NATIONAL WEATHER SERVICE: for Safety, for Work, for Fun - FOR LIFE